User: anonymous   Login
Location: Fort Wayne
(41.1310°N, 85.1290°W)
Time: 08:09:31
(UTC-04:00)
Language:

Cosmos 1980 - Orbit

View from above orbital plane
View from above orbital plane
View from above satellite
View from above satellite

Ground track
Ground track

The orbit data is extracted from the following two-line orbital elements,

1 19649U 88102A   17172.93553823 +.00000140 +00000-0 +97423-4 0  9998
2 19649 071.0004 055.8731 0007025 295.9407 064.0991 14.14662915474971
Epoch (UTC): 21 June 2017 22:27:10
Eccentricity: 0.0007025
inclination: 71.0004°
perigee height: 838 km
apogee height: 848 km
right ascension of ascending node: 55.8731°
argument of perigee: 295.9407°
revolutions per day: 14.14662915
mean anomaly at epoch: 64.0991°
orbit number at epoch: 47497

The dashed part of the orbit path shows where the satellite is in the earth's shadow,  

DLR